Content
SEND FEEDBACK

Daily
Averages
Monthly
Summary
Mexico

CANCUN, QUINTANA ROO


Home > North America > Mexico > Quintana Roo
Elevation: 9 meters     Latitude: 21 09N     Longitude: 086 49W

WEATHER
 
SELECT A DAY
Number of Records: 166,452;   Date Range: 1/1/95 - 10/24/14
 
SHARE

PRINT THIS DATA

[ ← Previous Day ]
WEATHER ALMANAC - 26 JUNE, 2013
[ Next Day → ]
[ °F ]   °C
We're sorry. There is no daily almanac available for Cancun, Quintana Roo on 26 June, 2013.
WEATHER BY HOUR - 26 JUNE, 2013
[ °F ]   °C
Local TimeTemperatureDewpointHumidityBarometerVisibilityWind DirectionWind SpeedGust SpeedPrecipitationEventsConditions
1:41 AM25 °C23 °C89 %1015.9 hPa11.3 kmWNW (300°)5.6 km/hScattered Clouds
2:41 AM25 °C23 °C89 %1015.2 hPa11.3 kmCalmScattered Clouds
3:47 AM24 °C23 °C94 %1014.9 hPa11.3 kmNW (320°)3.7 km/hScattered Clouds
4:42 AM23 °C22 °C94 %1014.6 hPa11.3 kmWNW (290°)5.6 km/hMostly Cloudy
5:42 AM23 °C22 °C94 %1014.9 hPa11.3 kmCalmMostly Cloudy
6:41 AM23 °C22 °C94 %1015.6 hPa11.3 kmCalmMostly Cloudy
7:42 AM26 °C24 °C89 %1015.6 hPa11.3 kmCalmMostly Cloudy
8:45 AM29 °C24 °C74 %1016.3 hPa11.3 kmENE (70°)11.1 km/hMostly Cloudy
9:49 AM29 °C24 °C74 %1016.6 hPa11.3 kmEast (100°)13 km/hScattered Clouds
10:44 AM30 °C25 °C74 %1016.6 hPa11.3 kmESE (110°)16.7 km/hMostly Cloudy
11:46 AM30 °C24 °C70 %1016.6 hPa11.3 kmENE (70°)11.1 km/hMostly Cloudy
12:44 PM31 °C24 °C66 %1016.6 hPa11.3 kmESE (110°)13 km/hMostly Cloudy
1:42 PM31 °C24 °C66 %1016.3 hPa11.3 kmEast (100°)11.1 km/hMostly Cloudy
2:42 PM32 °C24 °C62 %1015.6 hPa11.3 kmEast (100°)13 km/hMostly Cloudy
3:47 PM30 °C23 °C66 %1015.2 hPa11.3 kmEast (100°)14.8 km/hMostly Cloudy
4:40 PM29 °C24 °C74 %1015.2 hPa11.3 kmEast (90°)11.1 km/hMostly Cloudy
5:44 PM29 °C24 °C74 %1015.6 hPa11.3 kmEast (90°)7.4 km/hMostly Cloudy
6:40 PM29 °C24 °C74 %1015.9 hPa11.3 kmENE (70°)9.3 km/hMostly Cloudy
7:41 PM28 °C25 °C84 %1014.6 hPa11.3 kmENE (60°)5.6 km/hMostly Cloudy
8:44 PM27 °C24 °C84 %1014.9 hPa11.3 kmEast (80°)5.6 km/hMostly Cloudy
9:48 PM27 °C25 °C89 %1014.2 hPa11.3 kmENE (70°)9.3 km/hMostly Cloudy
10:47 PM27 °C25 °C89 %1016.6 hPa11.3 kmEast (90°)9.3 km/hMostly Cloudy
11:46 PM26 °C25 °C94 %1016.6 hPa11.3 kmCalmMostly Cloudy
Hourly data recorded from MMUN, located 0 kilometers away from Cancun, Quintana Roo







STORIES FROM OUR PARTNERS